Racine, WI

11:53 PM CST on February 11, 2016 (GMT -0600)
Batten

Weather History for KRAC - August, 2012

Change the Weather History Date:

Friday, August 10, 2012

  Actual Average (KMKE) Record (KMKE)
Temperature  
Mean Temperature 66 °F 71 °F  
Max Temperature 72 °F 79 °F 97 °F (1944)
Min Temperature 62 °F 64 °F 48 °F (1882)
Degree Days  
Heating Degree Days 0 0  
Month to date heating degree days 0  
Since 1 June heating degree days 95  
Since 1 July heating degree days 11  
Cooling Degree Days 2 7  
Month to date cooling degree days 70  
Year to date cooling degree days 442  
Since 1 June cooling degree days 412  
Growing Degree Days 16 (Base 50)    
Moisture  
Dew Point 55 °F    
Average Humidity 68    
Maximum Humidity 94    
Minimum Humidity 42    
Precipitation  
Precipitation 0.05 in 0.13 in 1.64 in (1916)
Month to date precipitation 1.30  
Year to date precipitation 21.51  
Snow  
Snow 0.00 in 0.00 in 0.00 in ()
Month to date snowfall 0.0  
Since 1 June snowfall 0.0  
Since 1 July snowfall 0.0  
Snow Depth -    
Sea Level Pressure  
Sea Level Pressure 29.93 in    
Wind  
Wind Speed 17 mph (NNE)    
Max Wind Speed 25 mph    
Max Gust Speed 34 mph    
Visibility 10 miles    
Events Rain , Thunderstorm    
T = Trace of Precipitation, MM = Missing Value Source: NWS Daily Summary

Daily Weather History Graph

Daily Weather History Graph

Search for Another Location

Airport or City:

Trip Planner

Search our weather history database for the weather conditions in past years. The results will help you decide how hot, cold, wet, or windy it might be!

Date:

Astronomy

Aug. 10, 2012 Rise Set
Actual Time 5:52 AM CDT 7:59 PM CDT
Civil Twilight 5:21 AM CDT 8:30 PM CDT
Nautical Twilight 4:43 AM CDT 9:08 PM CDT
Astronomical Twilight 4:01 AM CDT 9:49 PM CDT
Moon No Moon Rise 2:41 PM CDT (8/10)
Length of Visible Light 15h 08m
Length of Day
14h 06m
Last Quarter, 41% of the Moon is Illuminated
Aug 10
Last Quarter
Aug 17
New
Aug 24
First Quarter
Aug 31
Full
Sep 8
Last Quarter

Hourly Weather History & Observations

Time (CDT) Temp. Dew Point Humidity Pressure Visibility Wind Dir Wind Speed Gust Speed Precip Events Conditions
12:22 AM 64.4 °F 60.8 °F 88% 29.90 in 7.0 mi NE 19.6 mph 26.5 mph 0.02 in Rain , Thunderstorm Rain
12:37 AM 62.6 °F 59.0 °F 88% 29.90 in 10.0 mi NE 21.9 mph 31.1 mph 0.02 in Rain Light Rain
12:53 AM 63.0 °F 60.1 °F 90% 29.89 in 7.0 mi NE 17.3 mph 28.8 mph 0.03 in Rain Light Rain
1:05 AM 62.6 °F 60.8 °F 94% 29.89 in 8.0 mi NE 18.4 mph 24.2 mph 0.01 in Rain Light Rain
1:22 AM 62.6 °F 60.8 °F 94% 29.90 in 10.0 mi NE 17.3 mph 21.9 mph 0.01 in   Overcast
1:53 AM 63.0 °F 59.0 °F 87% 29.90 in 10.0 mi NNE 16.1 mph 20.7 mph 0.01 in   Overcast
2:53 AM 64.0 °F 57.0 °F 78% 29.88 in 10.0 mi NNE 13.8 mph 24.2 mph 0.00 in Rain Light Rain
3:53 AM 64.9 °F 55.9 °F 73% 29.88 in 10.0 mi NE 13.8 mph 21.9 mph 0.00 in   Mostly Cloudy
4:53 AM 66.0 °F 55.0 °F 68% 29.88 in 10.0 mi NNE 13.8 mph 23.0 mph N/A   Mostly Cloudy
5:53 AM 63.0 °F 57.9 °F 84% 29.90 in 10.0 mi WNW 9.2 mph - N/A   Overcast
6:53 AM 66.0 °F 55.0 °F 68% 29.91 in 10.0 mi NNE 17.3 mph 28.8 mph N/A   Partly Cloudy
7:53 AM 64.9 °F 55.0 °F 70% 29.92 in 10.0 mi NNE 15.0 mph 26.5 mph N/A   Mostly Cloudy
8:53 AM 66.9 °F 54.0 °F 63% 29.92 in 10.0 mi NNE 20.7 mph 32.2 mph 0.00 in   Overcast
9:53 AM 64.0 °F 57.9 °F 80% 29.93 in 10.0 mi NNW 10.4 mph - 0.00 in Rain Light Rain
10:53 AM 70.0 °F 59.0 °F 68% 29.94 in 10.0 mi North 18.4 mph 32.2 mph 0.00 in   Scattered Clouds
11:53 AM 68.0 °F 57.0 °F 68% 29.94 in 10.0 mi North 19.6 mph 32.2 mph N/A   Mostly Cloudy
12:53 PM 71.1 °F 55.0 °F 57% 29.95 in 10.0 mi North 23.0 mph 34.5 mph N/A   Mostly Cloudy
1:53 PM 70.0 °F 52.0 °F 53% 29.95 in 10.0 mi North 25.3 mph 31.1 mph 0.01 in   Scattered Clouds
2:53 PM 70.0 °F 46.0 °F 42% 29.96 in 10.0 mi North 24.2 mph 33.4 mph N/A   Clear
3:53 PM 71.1 °F 53.1 °F 53% 29.96 in 10.0 mi North 13.8 mph 28.8 mph N/A   Clear
4:53 PM 69.1 °F 54.0 °F 58% 29.95 in 10.0 mi NNE 18.4 mph 28.8 mph N/A   Clear
5:53 PM 70.0 °F 48.0 °F 46% 29.95 in 10.0 mi North 16.1 mph 27.6 mph N/A   Clear
6:53 PM 70.0 °F 48.9 °F 47% 29.95 in 10.0 mi North 17.3 mph 27.6 mph N/A   Scattered Clouds
7:53 PM 66.9 °F 51.1 °F 57% 29.97 in 10.0 mi North 16.1 mph 25.3 mph N/A   Partly Cloudy
8:53 PM 66.0 °F 48.9 °F 54% 29.97 in 10.0 mi NNE 16.1 mph 21.9 mph N/A   Clear
9:53 PM 64.9 °F 51.1 °F 61% 29.97 in 10.0 mi North 11.5 mph 20.7 mph N/A   Partly Cloudy
10:53 PM 64.9 °F 50.0 °F 58% 29.97 in 10.0 mi North 12.7 mph 19.6 mph N/A   Clear
11:53 PM 62.1 °F 50.0 °F 65% 29.97 in 10.0 mi NW 8.1 mph - N/A   Partly Cloudy